TAM3974 SBGR-SBRJ

Flight info

Callsign TAM3974
Flight time 0h 37m
Altitude 23000
Route NIBRU UZ171 KEVUN
Aircraft A320/M-SDE3FGHIRWY/LB1

Departure

Time 2026-05-04 14:42
Airport São Paulo/Guarulhos–Governor André Franco Montoro International Airport (SBGR)

Arrival

Time 2026-05-04 15:19
Airport Santos Dumont Airport (SBRJ)
Time Latitude Longitude Altitude Speed Heading
2026-05-04 14:08 -23.42809 -46.48247 2471 ft 0 kts 264°
2026-05-04 14:33 -23.42808 -46.48237 2472 ft 4 kts 263°
2026-05-04 14:33 -23.42802 -46.48209 2468 ft 4 kts 249°
2026-05-04 14:34 -23.42790 -46.48184 2474 ft 4 kts 216°
2026-05-04 14:34 -23.42773 -46.48177 2468 ft 1 kts 176°
2026-05-04 14:34 -23.42770 -46.48178 2468 ft 0 kts 176°
2026-05-04 14:37 -23.42814 -46.48174 2471 ft 10 kts 176°
2026-05-04 14:37 -23.42875 -46.48169 2469 ft 8 kts 175°
2026-05-04 14:37 -23.42922 -46.48155 2469 ft 6 kts 155°
2026-05-04 14:38 -23.42956 -46.48141 2470 ft 4 kts 165°
2026-05-04 14:38 -23.42989 -46.48133 2469 ft 7 kts 176°
2026-05-04 14:38 -23.43040 -46.48174 2471 ft 11 kts 248°
2026-05-04 14:38 -23.43049 -46.48248 2468 ft 9 kts 264°
2026-05-04 14:39 -23.43055 -46.48312 2468 ft 8 kts 264°
2026-05-04 14:39 -23.43063 -46.48391 2468 ft 11 kts 259°
2026-05-04 14:39 -23.43113 -46.48426 2468 ft 8 kts 171°
2026-05-04 14:40 -23.43230 -46.48387 2471 ft 13 kts 162°
2026-05-04 14:40 -23.43308 -46.48361 2470 ft 8 kts 165°
2026-05-04 14:40 -23.43357 -46.48347 2470 ft 7 kts 165°
2026-05-04 14:40 -23.43416 -46.48303 2470 ft 14 kts 109°
2026-05-04 14:41 -23.43407 -46.48257 2472 ft 0 kts 73°
2026-05-04 14:42 -23.43179 -46.47416 2469 ft 122 kts 74°
2026-05-04 14:42 -23.42883 -46.46357 2489 ft 168 kts 72°
2026-05-04 14:42 -23.42540 -46.45134 3172 ft 168 kts 72°
2026-05-04 14:43 -23.42186 -46.43913 3831 ft 173 kts 71°
2026-05-04 14:43 -23.41800 -46.42589 4173 ft 194 kts 70°
2026-05-04 14:43 -23.41366 -46.41107 4418 ft 218 kts 70°
2026-05-04 14:43 -23.40881 -46.39443 4793 ft 243 kts 70°
2026-05-04 14:44 -23.40347 -46.37604 5212 ft 267 kts 71°
2026-05-04 14:44 -23.40204 -46.35543 5848 ft 284 kts 100°
2026-05-04 14:44 -23.40811 -46.33471 6674 ft 290 kts 108°
2026-05-04 14:44 -23.41500 -46.31386 7516 ft 294 kts 109°
2026-05-04 14:45 -23.42204 -46.29284 8369 ft 297 kts 110°
2026-05-04 14:45 -23.42915 -46.27155 9191 ft 301 kts 110°
2026-05-04 14:45 -23.43625 -46.25006 10055 ft 304 kts 109°
2026-05-04 14:45 -23.44137 -46.22733 10526 ft 319 kts 102°
2026-05-04 14:46 -23.44575 -46.20278 10778 ft 342 kts 102°
2026-05-04 14:46 -23.45016 -46.17713 11276 ft 354 kts 101°
2026-05-04 14:46 -23.45474 -46.15023 11967 ft 359 kts 102°
2026-05-04 14:46 -23.45925 -46.12368 12675 ft 364 kts 102°
2026-05-04 14:47 -23.46390 -46.09646 13335 ft 367 kts 102°
2026-05-04 14:47 -23.46866 -46.06891 13986 ft 373 kts 103°
2026-05-04 14:47 -23.47351 -46.04101 14596 ft 377 kts 103°
2026-05-04 14:47 -23.47841 -46.01275 15183 ft 382 kts 102°
2026-05-04 14:48 -23.48337 -45.98418 15762 ft 386 kts 103°
2026-05-04 14:48 -23.48836 -45.95524 16328 ft 391 kts 102°
2026-05-04 14:48 -23.49339 -45.92596 16903 ft 396 kts 102°
2026-05-04 14:48 -23.49853 -45.89625 17456 ft 400 kts 102°
2026-05-04 14:49 -23.50376 -45.86635 17961 ft 404 kts 102°
2026-05-04 14:49 -23.50908 -45.83610 18511 ft 409 kts 103°
2026-05-04 14:49 -23.51447 -45.80551 18985 ft 413 kts 103°
2026-05-04 14:49 -23.51988 -45.77469 19465 ft 416 kts 103°
2026-05-04 14:50 -23.52531 -45.74363 19845 ft 419 kts 103°
2026-05-04 14:50 -23.53081 -45.71232 20262 ft 423 kts 103°
2026-05-04 14:50 -23.53636 -45.68071 20753 ft 426 kts 103°
2026-05-04 14:50 -23.54192 -45.64895 21187 ft 428 kts 103°
2026-05-04 14:51 -23.54751 -45.61697 21615 ft 431 kts 103°
2026-05-04 14:51 -23.55310 -45.58479 22108 ft 432 kts 103°
2026-05-04 14:51 -23.55871 -45.55242 22527 ft 437 kts 103°
2026-05-04 14:51 -23.56436 -45.51977 22951 ft 440 kts 103°
2026-05-04 14:52 -23.56888 -45.48665 23187 ft 443 kts 96°
2026-05-04 14:52 -23.56843 -45.45332 23214 ft 439 kts 85°
2026-05-04 14:52 -23.56293 -45.42066 23212 ft 438 kts 77°
2026-05-04 14:52 -23.55593 -45.38835 23213 ft 438 kts 78°
2026-05-04 14:53 -23.54902 -45.35604 23214 ft 438 kts 78°
2026-05-04 14:53 -23.54217 -45.32375 23213 ft 438 kts 78°
2026-05-04 14:53 -23.53533 -45.29134 23216 ft 438 kts 78°
2026-05-04 14:53 -23.52852 -45.25902 23213 ft 437 kts 78°
2026-05-04 14:54 -23.52168 -45.22671 23216 ft 437 kts 78°
2026-05-04 14:54 -23.51480 -45.19439 23214 ft 440 kts 78°
2026-05-04 14:54 -23.51023 -45.17297 23222 ft 437 kts 78°
2026-05-04 14:54 -23.50337 -45.14066 23211 ft 437 kts 78°
2026-05-04 14:55 -23.49653 -45.10846 23211 ft 437 kts 78°
2026-05-04 14:55 -23.48745 -45.06580 23208 ft 436 kts 77°
2026-05-04 14:55 -23.48056 -45.03364 23209 ft 436 kts 77°
2026-05-04 14:55 -23.47368 -45.00154 23211 ft 436 kts 77°
2026-05-04 14:56 -23.46902 -44.97976 23205 ft 435 kts 77°
2026-05-04 14:56 -23.46215 -44.94758 23194 ft 436 kts 77°
2026-05-04 14:56 -23.45519 -44.91546 23192 ft 436 kts 77°
2026-05-04 14:56 -23.44811 -44.88333 23193 ft 436 kts 77°
2026-05-04 14:57 -23.44094 -44.85128 23193 ft 436 kts 77°
2026-05-04 14:57 -23.43383 -44.81964 23194 ft 436 kts 77°
2026-05-04 14:57 -23.42660 -44.78756 23211 ft 436 kts 76°
2026-05-04 14:57 -23.41937 -44.75547 23206 ft 440 kts 77°
2026-05-04 14:58 -23.41207 -44.72285 23153 ft 442 kts 77°
2026-05-04 14:58 -23.40487 -44.69065 22312 ft 435 kts 76°
2026-05-04 14:58 -23.39778 -44.65883 21376 ft 430 kts 76°
2026-05-04 14:58 -23.39083 -44.62753 20661 ft 420 kts 76°
2026-05-04 14:59 -23.38406 -44.59711 20156 ft 406 kts 76°
2026-05-04 14:59 -23.37749 -44.56763 19647 ft 394 kts 76°
2026-05-04 14:59 -23.36480 -44.51098 18682 ft 382 kts 76°
2026-05-04 15:00 -23.35843 -44.48284 18162 ft 383 kts 76°
2026-05-04 15:00 -23.35205 -44.45472 17682 ft 383 kts 76°
2026-05-04 15:00 -23.34539 -44.42671 17202 ft 381 kts 71°
2026-05-04 15:01 -23.32423 -44.37437 16341 ft 376 kts 64°
2026-05-04 15:01 -23.31319 -44.34867 15916 ft 374 kts 64°
2026-05-04 15:01 -23.30220 -44.32311 15478 ft 373 kts 64°
2026-05-04 15:01 -23.29122 -44.29761 15046 ft 371 kts 64°
2026-05-04 15:02 -23.28030 -44.27225 14621 ft 369 kts 64°
2026-05-04 15:02 -23.26947 -44.24703 14189 ft 367 kts 64°
2026-05-04 15:02 -23.25881 -44.22217 13717 ft 356 kts 64°
2026-05-04 15:02 -23.24855 -44.19827 13317 ft 346 kts 64°
2026-05-04 15:03 -23.23835 -44.17456 12887 ft 345 kts 64°
2026-05-04 15:03 -23.22818 -44.15096 12455 ft 344 kts 64°
2026-05-04 15:03 -23.21800 -44.12743 12043 ft 343 kts 64°
2026-05-04 15:03 -23.20784 -44.10399 11611 ft 343 kts 64°
2026-05-04 15:04 -23.19770 -44.08055 11188 ft 342 kts 64°
2026-05-04 15:04 -23.18748 -44.05752 10974 ft 335 kts 63°
2026-05-04 15:04 -23.17716 -44.03498 10800 ft 332 kts 62°
2026-05-04 15:04 -23.16677 -44.01267 10613 ft 330 kts 62°
2026-05-04 15:05 -23.15643 -43.99045 10420 ft 327 kts 62°
2026-05-04 15:05 -23.14666 -43.96855 10286 ft 317 kts 63°
2026-05-04 15:05 -23.13745 -43.94706 10047 ft 311 kts 64°
2026-05-04 15:05 -23.12851 -43.92585 9956 ft 308 kts 64°
2026-05-04 15:06 -23.11962 -43.90475 9806 ft 307 kts 64°
2026-05-04 15:06 -23.11073 -43.88370 9651 ft 306 kts 64°
2026-05-04 15:06 -23.10194 -43.86302 9489 ft 305 kts 63°
2026-05-04 15:07 -23.08411 -43.82138 9170 ft 303 kts 63°
2026-05-04 15:07 -23.07522 -43.80069 9005 ft 302 kts 63°
2026-05-04 15:07 -23.06634 -43.78004 8857 ft 302 kts 63°
2026-05-04 15:07 -23.05748 -43.75945 8670 ft 300 kts 63°
2026-05-04 15:08 -23.04867 -43.73889 8525 ft 300 kts 63°
2026-05-04 15:08 -23.03987 -43.71840 8363 ft 299 kts 63°
2026-05-04 15:08 -23.03111 -43.69798 8206 ft 298 kts 63°
2026-05-04 15:08 -23.02230 -43.67761 7928 ft 297 kts 63°
2026-05-04 15:09 -23.01350 -43.65746 7645 ft 295 kts 63°
2026-05-04 15:09 -23.00466 -43.63734 7256 ft 294 kts 63°
2026-05-04 15:09 -22.99592 -43.61749 6964 ft 291 kts 63°
2026-05-04 15:10 -22.97857 -43.57804 6632 ft 288 kts 62°
2026-05-04 15:10 -22.96993 -43.55842 6454 ft 288 kts 62°
2026-05-04 15:10 -22.95347 -43.52090 6173 ft 256 kts 62°
2026-05-04 15:11 -22.94601 -43.50389 6050 ft 245 kts 63°
2026-05-04 15:11 -22.93891 -43.48738 5945 ft 237 kts 63°
2026-05-04 15:11 -22.93214 -43.47140 5838 ft 229 kts 62°
2026-05-04 15:11 -22.92564 -43.45598 5700 ft 221 kts 63°
2026-05-04 15:12 -22.91941 -43.44112 5579 ft 211 kts 61°
2026-05-04 15:12 -22.91339 -43.42683 5269 ft 206 kts 62°
2026-05-04 15:12 -22.90746 -43.41282 4917 ft 202 kts 62°
2026-05-04 15:12 -22.90168 -43.39916 4511 ft 202 kts 64°
2026-05-04 15:13 -22.89591 -43.38555 4235 ft 197 kts 62°
2026-05-04 15:13 -22.89021 -43.37212 4046 ft 194 kts 63°
2026-05-04 15:13 -22.88515 -43.35909 3871 ft 182 kts 72°
2026-05-04 15:13 -22.88306 -43.34617 3727 ft 165 kts 86°
2026-05-04 15:14 -22.88335 -43.33444 3600 ft 147 kts 89°
2026-05-04 15:14 -22.88373 -43.32359 3466 ft 142 kts 89°
2026-05-04 15:14 -22.88409 -43.31295 3336 ft 140 kts 89°
2026-05-04 15:14 -22.88444 -43.30236 3211 ft 140 kts 90°
2026-05-04 15:15 -22.88480 -43.29171 3030 ft 143 kts 90°
2026-05-04 15:15 -22.88515 -43.28099 2895 ft 141 kts 91°
2026-05-04 15:15 -22.88550 -43.27039 2784 ft 141 kts 90°
2026-05-04 15:16 -22.89086 -43.25023 2468 ft 139 kts 110°
2026-05-04 15:16 -22.89450 -43.24043 2292 ft 139 kts 110°
2026-05-04 15:16 -22.90175 -43.22092 1938 ft 140 kts 111°
2026-05-04 15:17 -22.90581 -43.21122 1756 ft 139 kts 119°
2026-05-04 15:17 -22.92033 -43.19717 1405 ft 145 kts 151°
2026-05-04 15:17 -22.92997 -43.19411 1211 ft 146 kts 169°
2026-05-04 15:18 -22.93960 -43.19147 1041 ft 141 kts 143°
2026-05-04 15:18 -22.94570 -43.18373 956 ft 136 kts 109°
2026-05-04 15:18 -22.94639 -43.17375 897 ft 134 kts 76°
2026-05-04 15:19 -22.93196 -43.16265 272 ft 140 kts
2026-05-04 15:19 -22.92228 -43.16240 147 ft 140 kts
2026-05-04 15:19 -22.90800 -43.16300 24 ft 39 kts 357°
2026-05-04 15:20 -22.90562 -43.16315 25 ft 29 kts 355°
2026-05-04 15:20 -22.90492 -43.16393 24 ft 13 kts 271°
2026-05-04 15:20 -22.90498 -43.16491 22 ft 13 kts 266°
2026-05-04 15:20 -22.90527 -43.16558 22 ft 9 kts 184°
2026-05-04 15:21 -22.90589 -43.16554 23 ft 10 kts 174°
2026-05-04 15:21 -22.90660 -43.16548 23 ft 10 kts 176°
2026-05-04 15:21 -22.90816 -43.16545 22 ft 17 kts 188°
2026-05-04 15:22 -22.90937 -43.16543 24 ft 18 kts 176°
2026-05-04 15:22 -22.91061 -43.16534 22 ft 15 kts 176°
2026-05-04 15:22 -22.91166 -43.16538 24 ft 5 kts 262°
2026-05-04 15:23 -22.91167 -43.16552 22 ft 1 kts 265°
2026-05-04 15:23 -22.91168 -43.16562 22 ft 2 kts 264°
2026-05-04 15:23 -22.91169 -43.16572 22 ft 1 kts 266°
2026-05-04 15:23 -22.91169 -43.16576 22 ft 0 kts 267°
2026-05-04 15:24 -22.91169 -43.16585 22 ft 0 kts 266°